Location: *
(2.5500°S, 65.9667°W)
Time: 12:46:26
(UTC+00:00)

GPS 2-04 Rocket1 - Pass Details

Date: 26 October 2021
Orbit: 413 x 535 km, 35.6° (Epoch: 28 November)

Event Time Altitude Azimuth Distance (km) Brightness Sun altitude
Rises 22:41:10 0° 305° (NW) 2,575 6.9 -7.6°
Reaches altitude 10° 22:43:25 10° 303° (WNW) 1,673 6.0 -8.1°
Maximum altitude 22:47:14 73° 219° (SW) 498 2.7 -9.0°
Drops below altitude 10° 22:50:54 10° 133° (SE) 1,603 4.9 -9.9°
Enters shadow 22:52:35 - 131° (SE) 2,279 5.6 -10.3°
